St. James, MN

9:04 PM CST on November 20, 2017 (GMT -0600)
Saint James Municipal

Weather History for KJYG - April, 2014

Change the Weather History Date:

Wednesday, April 16, 2014

  Actual Average Record
Temperature  
Mean Temperature 42 °F -  
Max Temperature 53 °F 61 °F 88 °F (1964)
Min Temperature 30 °F 37 °F 19 °F (1961)
Degree Days  
Heating Degree Days 22    
Moisture  
Dew Point 29 °F    
Average Humidity 70    
Maximum Humidity 93    
Minimum Humidity 44    
Precipitation  
Precipitation 0.16 in - - ()
Sea Level Pressure  
Sea Level Pressure 29.84 in    
Wind  
Wind Speed 17 mph (East)    
Max Wind Speed 25 mph    
Max Gust Speed 34 mph    
Visibility 9 miles    
Events Rain , Snow    
Averages and records for this station are not official NWS values.
T = Trace of Precipitation, MM = Missing Value Source: NWS Daily Summary

Daily Weather History Graph

Daily Weather History Graph

Search for Another Location

Airport or City:

Trip Planner

Search our weather history database for the weather conditions in past years. The results will help you decide how hot, cold, wet, or windy it might be!

Date:

Astronomy

Apr. 16, 2014 Rise Set
Actual Time 6:33 AM CDT 8:03 PM CDT
Civil Twilight 6:03 AM CDT 8:33 PM CDT
Nautical Twilight 5:26 AM CDT 9:10 PM CDT
Astronomical Twilight 4:47 AM CDT 9:49 PM CDT
Moon 9:51 PM CDT (4/16) 7:19 AM CDT (4/16)
Length of Visible Light 14h 30m
Length of Day
13h 30m
Full, 98% of the Moon is Illuminated
Apr 16
Full
Apr 22
Last Quarter
Apr 29
New
May 6
First Quarter
May 14
Full

Hourly Weather History & Observations

Time (CDT) Temp. Windchill Dew Point Humidity Pressure Visibility Wind Dir Wind Speed Gust Speed Precip Events Conditions
12:14 AM 35.6 °F 25.5 °F 21.2 °F 56% 29.95 in 10.0 mi East 17.3 mph 23.0 mph N/A   Mostly Cloudy
12:35 AM 33.8 °F 23.2 °F 23.0 °F 65% 29.95 in 10.0 mi East 17.3 mph - N/A   Scattered Clouds
12:55 AM 33.8 °F 23.9 °F 21.2 °F 60% 29.94 in 10.0 mi East 15.0 mph - N/A   Scattered Clouds
1:15 AM 33.8 °F 23.2 °F 21.2 °F 60% 29.94 in 10.0 mi East 17.3 mph - N/A   Scattered Clouds
1:35 AM 33.8 °F 22.8 °F 21.2 °F 60% 29.92 in 10.0 mi East 18.4 mph 25.3 mph N/A   Mostly Cloudy
1:55 AM 33.8 °F 22.5 °F 21.2 °F 60% 29.91 in 10.0 mi East 19.6 mph - N/A   Mostly Cloudy
2:15 AM 35.6 °F 24.0 °F 21.2 °F 56% 29.89 in 10.0 mi East 23.0 mph 27.6 mph N/A   Scattered Clouds
2:35 AM 35.6 °F 24.2 °F 21.2 °F 56% 29.87 in 10.0 mi ESE 21.9 mph 34.5 mph N/A   Scattered Clouds
2:55 AM 35.6 °F 24.2 °F 21.2 °F 56% 29.87 in 10.0 mi ESE 21.9 mph 28.8 mph N/A   Mostly Cloudy
3:15 AM 35.6 °F 24.5 °F 21.2 °F 56% 29.86 in 10.0 mi East 20.7 mph 29.9 mph N/A   Mostly Cloudy
3:35 AM 35.6 °F 24.5 °F 21.2 °F 56% 29.86 in 10.0 mi East 20.7 mph 28.8 mph N/A   Mostly Cloudy
3:55 AM 35.6 °F 24.2 °F 21.2 °F 56% 29.85 in 10.0 mi East 21.9 mph 26.5 mph N/A   Scattered Clouds
4:15 AM 35.6 °F 24.8 °F 23.0 °F 60% 29.84 in 10.0 mi East 19.6 mph 25.3 mph N/A   Scattered Clouds
4:35 AM 35.6 °F 26.2 °F 23.0 °F 60% 29.85 in 10.0 mi East 15.0 mph 20.7 mph N/A   Scattered Clouds
4:54 AM 35.6 °F 26.2 °F 23.0 °F 60% 29.84 in 10.0 mi East 15.0 mph - N/A   Scattered Clouds
5:15 AM 35.6 °F 25.5 °F 24.8 °F 65% 29.82 in 10.0 mi East 17.3 mph 23.0 mph N/A   Mostly Cloudy
5:35 AM 35.6 °F 25.9 °F 24.8 °F 65% 29.82 in 10.0 mi ESE 16.1 mph 21.9 mph N/A   Mostly Cloudy
5:55 AM 35.6 °F 26.2 °F 24.8 °F 65% 29.81 in 10.0 mi ESE 15.0 mph 21.9 mph N/A   Mostly Cloudy
6:15 AM 37.4 °F 27.5 °F 26.6 °F 65% 29.81 in 10.0 mi ESE 18.4 mph 24.2 mph N/A   Scattered Clouds
6:35 AM 37.4 °F 27.2 °F 26.6 °F 65% 29.81 in 10.0 mi ESE 19.6 mph 24.2 mph N/A   Scattered Clouds
6:55 AM 37.4 °F 28.2 °F 26.6 °F 65% 29.82 in 10.0 mi ESE 16.1 mph 21.9 mph N/A   Scattered Clouds
7:15 AM 37.4 °F 27.2 °F 26.6 °F 65% 29.80 in 10.0 mi ESE 19.6 mph - N/A   Scattered Clouds
7:35 AM 37.4 °F 27.8 °F 28.4 °F 70% 29.80 in 10.0 mi ESE 17.3 mph 25.3 mph N/A   Clear
7:55 AM 37.4 °F 27.8 °F 28.4 °F 70% 29.80 in 10.0 mi ESE 17.3 mph 23.0 mph N/A   Scattered Clouds
8:15 AM 39.2 °F 30.8 °F 28.4 °F 65% 29.81 in 10.0 mi ESE 15.0 mph 21.9 mph N/A   Scattered Clouds
8:35 AM 39.2 °F 31.2 °F 28.4 °F 65% 29.81 in 10.0 mi ESE 13.8 mph - N/A   Scattered Clouds
8:55 AM 39.2 °F 30.5 °F 28.4 °F 65% 29.80 in 10.0 mi ESE 16.1 mph - N/A   Scattered Clouds
9:15 AM 39.2 °F 31.2 °F 28.4 °F 65% 29.79 in 10.0 mi ESE 13.8 mph 18.4 mph N/A   Scattered Clouds
9:35 AM 41.0 °F 32.5 °F 28.4 °F 61% 29.78 in 10.0 mi ESE 17.3 mph 23.0 mph N/A   Clear
9:54 AM 41.0 °F 33.1 °F 28.4 °F 61% 29.78 in 10.0 mi ESE 15.0 mph - N/A   Scattered Clouds
10:15 AM 42.8 °F 34.5 °F 28.4 °F 57% 29.79 in 10.0 mi SE 18.4 mph 21.9 mph N/A   Mostly Cloudy
10:35 AM 42.8 °F 35.4 °F 30.2 °F 61% 29.79 in 10.0 mi SE 15.0 mph - N/A   Scattered Clouds
10:54 AM 42.8 °F 35.4 °F 30.2 °F 61% 29.79 in 10.0 mi SE 15.0 mph 19.6 mph N/A   Scattered Clouds
11:15 AM 44.6 °F 38.4 °F 30.2 °F 57% 29.78 in 10.0 mi ESE 12.7 mph - N/A   Clear
11:34 AM 46.4 °F 40.4 °F 32.0 °F 57% 29.77 in 10.0 mi SE 13.8 mph 17.3 mph N/A   Clear
11:55 AM 48.2 °F - 33.8 °F 58% 29.76 in 10.0 mi SE 13.8 mph - N/A   Scattered Clouds
12:15 PM 50.0 °F - 33.8 °F 54% 29.76 in 10.0 mi SSE 15.0 mph 21.9 mph N/A   Clear
12:35 PM 51.8 °F - 32.0 °F 47% 29.75 in 10.0 mi SSE 19.6 mph 24.2 mph N/A   Clear
12:55 PM 51.8 °F - 32.0 °F 47% 29.75 in 10.0 mi SSE 12.7 mph - N/A   Clear
1:15 PM 51.8 °F - 32.0 °F 47% 29.74 in 10.0 mi South 10.4 mph - N/A   Clear
1:34 PM 51.8 °F - 30.2 °F 44% 29.74 in 10.0 mi South 17.3 mph 21.9 mph N/A   Clear
1:55 PM 51.8 °F - 30.2 °F 44% 29.75 in 10.0 mi South 10.4 mph - N/A   Scattered Clouds
2:15 PM 53.6 °F - 33.8 °F 47% 29.76 in 10.0 mi South 4.6 mph - N/A   Scattered Clouds
2:35 PM 51.8 °F - 33.8 °F 50% 29.76 in 10.0 mi SSE 16.1 mph 23.0 mph N/A Rain Light Rain
2:55 PM 48.2 °F - 37.4 °F 66% 29.77 in 5.0 mi SW 15.0 mph 27.6 mph N/A Rain Light Rain
3:14 PM 48.2 °F - 39.2 °F 71% 29.75 in 10.0 mi WNW 13.8 mph 23.0 mph N/A   Scattered Clouds
3:35 PM 42.8 °F 34.5 °F 39.2 °F 87% 29.76 in 10.0 mi NNW 18.4 mph 23.0 mph N/A   Mostly Cloudy
3:55 PM 42.8 °F 34.3 °F 39.2 °F 87% 29.78 in 10.0 mi NW 19.6 mph - N/A   Scattered Clouds
4:14 PM 42.8 °F 34.8 °F 37.4 °F 81% 29.79 in 10.0 mi NNW 17.3 mph - N/A   Light Drizzle
4:35 PM 41.0 °F 32.2 °F 37.4 °F 87% 29.79 in 7.0 mi North 18.4 mph - 0.01 in Rain Rain
4:55 PM 39.2 °F 30.5 °F 37.4 °F 93% 29.80 in 7.0 mi North 16.1 mph 19.6 mph 0.02 in Rain Light Rain
5:15 PM 39.2 °F 31.2 °F 37.4 °F 93% 29.80 in 7.0 mi North 13.8 mph 18.4 mph 0.01 in Rain Light Rain
5:35 PM 39.2 °F 29.3 °F 35.6 °F 87% 29.81 in 5.0 mi North 20.7 mph 25.3 mph 0.02 in Rain Rain
5:54 PM 37.4 °F 27.5 °F 35.6 °F 93% 29.82 in 7.0 mi North 18.4 mph 24.2 mph 0.03 in Rain Light Rain
6:15 PM 37.4 °F 27.2 °F 35.6 °F 93% 29.83 in 4.0 mi North 19.6 mph 25.3 mph N/A Rain Light Rain
6:35 PM 37.4 °F 28.9 °F 35.6 °F 93% 29.83 in 4.0 mi North 13.8 mph 24.2 mph 0.01 in Rain Light Rain
6:55 PM 35.6 °F 26.2 °F 33.8 °F 93% 29.84 in 4.0 mi North 15.0 mph - 0.01 in Rain Light Rain
7:15 PM 35.6 °F 26.6 °F 33.8 °F 93% 29.85 in 5.0 mi NNE 13.8 mph 23.0 mph 0.01 in Rain Light Rain
7:35 PM 35.6 °F 26.6 °F 33.8 °F 93% 29.86 in 4.0 mi North 13.8 mph - 0.03 in Rain Light Rain
7:54 PM 35.6 °F 26.2 °F 33.8 °F 93% 29.86 in 4.0 mi North 15.0 mph 20.7 mph 0.05 in Rain Light Rain
8:15 PM 35.6 °F 26.2 °F 33.8 °F 93% 29.86 in 4.0 mi North 15.0 mph 20.7 mph 0.02 in Rain Light Rain
8:34 PM 35.6 °F 26.6 °F 33.8 °F 93% 29.88 in 5.0 mi NNW 13.8 mph - 0.03 in Rain Light Rain
8:55 PM 33.8 °F 23.2 °F 32.0 °F 93% 29.90 in 1.8 mi NNW 17.3 mph - 0.04 in Snow Light Snow
9:14 PM 33.8 °F 22.2 °F 30.2 °F 87% 29.91 in 1.5 mi NW 20.7 mph - 0.01 in Snow Light Snow
9:35 PM 32.0 °F 20.5 °F 30.2 °F 93% 29.93 in 2.5 mi NNW 18.4 mph - 0.01 in Snow Light Snow
9:55 PM 32.0 °F 20.1 °F 30.2 °F 93% 29.95 in 4.0 mi NNW 19.6 mph - 0.01 in Snow Light Snow
10:14 PM 32.0 °F 20.1 °F 28.4 °F 87% 29.95 in 10.0 mi NNW 19.6 mph 28.8 mph N/A   Overcast
10:35 PM 32.0 °F 19.2 °F 28.4 °F 87% 29.97 in 10.0 mi NNW 23.0 mph 27.6 mph N/A   Overcast
10:55 PM 32.0 °F 18.6 °F 28.4 °F 87% 29.98 in 10.0 mi NNW 25.3 mph 28.8 mph N/A   Overcast
11:14 PM 32.0 °F 19.8 °F 28.4 °F 87% 29.98 in 10.0 mi NNW 20.7 mph 27.6 mph N/A   Overcast
11:34 PM 32.0 °F 19.8 °F 28.4 °F 87% 29.99 in 10.0 mi NW 20.7 mph 25.3 mph N/A   Overcast
11:55 PM 30.2 °F 17.1 °F 28.4 °F 93% 30.00 in 10.0 mi NW 21.9 mph 26.5 mph N/A   Overcast